This is the latest recevied weather packets stored in our database for station/object KC1OHT-13. If no packets are shown the sender has not sent any weather packets the latest 1 day(s).
| Time | Temp. | Humidity | Pressure | Rain* | Wind** | Luminosity | Snow |
|---|---|---|---|---|---|---|---|
| 1777990398 | 20° C | 58% | 1007.9 hPa | 0 mm | 0.45 m/s, 124° | 603 W/m² | - |
| 1777990094 | 19.44° C | 60% | 1007.9 hPa | 0 mm | 0.89 m/s, 224° | 179 W/m² | - |
| 1777989791 | 18.89° C | 62% | 1007.9 hPa | 0 mm | 0.45 m/s, 139° | 269 W/m² | - |
| 1777989488 | 18.89° C | 62% | 1007.8 hPa | 0 mm | 0.89 m/s, 203° | 171 W/m² | - |
| 1777989184 | 18.89° C | 62% | 1007.9 hPa | 0 mm | 0.89 m/s, 19° | 159 W/m² | - |
| 1777988880 | 18.89° C | 62% | 1008.1 hPa | 0 mm | 0.89 m/s, 298° | 106 W/m² | - |
| 1777988578 | 19.44° C | 61% | 1008 hPa | 0 mm | 0.45 m/s, 13° | 249 W/m² | - |
| 1777988274 | 19.44° C | 61% | 1008.2 hPa | 0 mm | 0.89 m/s, 202° | 323 W/m² | - |
| 1777987971 | 18.89° C | 62% | 1008.3 hPa | 0 mm | 1.79 m/s, 5° | 575 W/m² | - |
| 1777987667 | 18.89° C | 60% | 1008.3 hPa | 0 mm | 0.89 m/s, 165° | 145 W/m² | - |
| 1777987364 | 19.44° C | 60% | 1008.5 hPa | 0 mm | 0.45 m/s, 90° | 143 W/m² | - |
| 1777987061 | 18.89° C | 60% | 1008.6 hPa | 0 mm | 0 m/s | 496 W/m² | - |
| 1777986758 | 18.89° C | 62% | 1008.6 hPa | 0 mm | 0.45 m/s, 69° | 440 W/m² | - |
| 1777986456 | 18.33° C | 64% | 1008.5 hPa | 0 mm | 0.45 m/s, 62° | 412 W/m² | - |
| 1777986154 | 17.78° C | 66% | 1008.3 hPa | 0 mm | 2.24 m/s, 108° | 395 W/m² | - |
| 1777985851 | 17.78° C | 66% | 1008.4 hPa | 0 mm | 0.45 m/s, 321° | 387 W/m² | - |
| 1777985548 | 17.78° C | 66% | 1008.6 hPa | 0 mm | 1.34 m/s, 168° | 368 W/m² | - |
| 1777985245 | 17.22° C | 67% | 1008.6 hPa | 0 mm | 1.34 m/s, 83° | 360 W/m² | - |
| 1777984942 | 16.67° C | 68% | 1008.7 hPa | 0 mm | 1.34 m/s, 237° | 346 W/m² | - |
| 1777984637 | 16.67° C | 69% | 1008.4 hPa | 0 mm | 1.34 m/s, 54° | 326 W/m² | - |
| 1777984335 | 16.67° C | 70% | 1008.6 hPa | 0 mm | 0.89 m/s, 271° | 306 W/m² | - |
| 1777984031 | 16.11° C | 72% | 1008.3 hPa | 0 mm | 0.89 m/s, 179° | 297 W/m² | - |
| 1777983728 | 15.56° C | 73% | 1008.2 hPa | 0 mm | 0.89 m/s, 11° | 283 W/m² | - |
| 1777983419 | 15.56° C | 74% | 1008 hPa | 0 mm | 1.79 m/s, 168° | 265 W/m² | - |
| 1777983115 | 15.56° C | 73% | 1008 hPa | 0 mm | 0.89 m/s, 205° | 252 W/m² | - |
* Rain latest hour (hover to see other rain measurements)
** Current wind speed in m/s (hover to see current wind gust speed)